Fort Pierce, FL

6:55 PM EST on February 08, 2016 (GMT -0500)
Saint Lucie County International

Weather History for KFPR - February, 2012

Change the Weather History Date:

Saturday, February 25, 2012

  Actual Average Record
Temperature  
Mean Temperature 66 °F -  
Max Temperature 70 °F 73 °F 85 °F (1944)
Min Temperature 62 °F 51 °F 28 °F (1989)
Cooling Degree Days 1    
Growing Degree Days 16 (Base 50)    
Moisture  
Dew Point 57 °F    
Average Humidity 74    
Maximum Humidity 100    
Minimum Humidity 53    
Precipitation  
Precipitation 0.00 in - - ()
Sea Level Pressure  
Sea Level Pressure 30.13 in    
Wind  
Wind Speed 5 mph (North)    
Max Wind Speed 15 mph    
Max Gust Speed 23 mph    
Visibility 8 miles    
Events Rain    
Averages and records for this station are not official NWS values.
T = Trace of Precipitation, MM = Missing Value Source: NWS Daily Summary

Daily Weather History Graph

Daily Weather History Graph

Search for Another Location

Airport or City:

Trip Planner

Search our weather history database for the weather conditions in past years. The results will help you decide how hot, cold, wet, or windy it might be!

Date:

Astronomy

Feb. 25, 2012 Rise Set
Actual Time 6:50 AM EST 6:19 PM EST
Civil Twilight 6:26 AM EST 6:42 PM EST
Nautical Twilight 5:59 AM EST 7:10 PM EST
Astronomical Twilight 5:32 AM EST 7:37 PM EST
Moon 8:38 AM EST (2/25) 9:50 PM EST (2/25)
Length of Visible Light 12h 16m
Length of Day
11h 29m
Waxing Crescent, 13% of the Moon is Illuminated
Feb 25
Waxing Crescent
Feb 29
First Quarter
Mar 8
Full
Mar 14
Last Quarter
Mar 22
New

Hourly Weather History & Observations

Time (EST) Temp. Dew Point Humidity Pressure Visibility Wind Dir Wind Speed Gust Speed Precip Events Conditions
12:53 AM 64.9 °F 60.1 °F 84% 30.04 in 10.0 mi Calm Calm - N/A   Clear
1:53 AM 64.9 °F 60.1 °F 84% 30.03 in 10.0 mi SW 3.5 mph - N/A   Clear
2:53 AM 64.0 °F 61.0 °F 90% 30.02 in 10.0 mi SW 3.5 mph - N/A   Mostly Cloudy
3:53 AM 66.9 °F 64.0 °F 90% 30.02 in 7.0 mi Calm Calm - N/A   Scattered Clouds
4:53 AM 66.9 °F 64.9 °F 93% 30.03 in 6.0 mi SW 3.5 mph - N/A   Clear
5:42 AM 62.6 °F 62.6 °F 100% 30.05 in 1.8 mi West 3.5 mph - N/A   Scattered Clouds
5:53 AM 66.0 °F 64.0 °F 93% 30.06 in 3.0 mi WNW 4.6 mph - N/A   Mostly Cloudy
6:33 AM 66.2 °F 64.4 °F 94% 30.08 in 3.0 mi WNW 4.6 mph - N/A   Overcast
6:42 AM 66.2 °F 64.4 °F 94% 30.09 in 4.0 mi WNW 3.5 mph - N/A   Overcast
6:53 AM 66.9 °F 66.0 °F 97% 30.10 in 3.0 mi North 6.9 mph - N/A   Overcast
7:01 AM 66.2 °F 66.2 °F 100% 30.10 in 2.0 mi NNW 5.8 mph - N/A   Mist
7:18 AM 66.2 °F 64.4 °F 94% 30.11 in 6.0 mi North 6.9 mph - N/A   Overcast
7:32 AM 68.0 °F 62.6 °F 83% 30.12 in 10.0 mi North 8.1 mph - N/A   Overcast
7:53 AM 68.0 °F 60.1 °F 76% 30.13 in 10.0 mi NNE 9.2 mph - 0.00 in Rain Light Rain
8:53 AM 68.0 °F 55.9 °F 65% 30.17 in 10.0 mi North 10.4 mph 20.7 mph 0.00 in   Overcast
9:53 AM 68.0 °F 54.0 °F 61% 30.18 in 10.0 mi North 9.2 mph 19.6 mph N/A   Overcast
10:53 AM 70.0 °F 52.0 °F 53% 30.19 in 10.0 mi North 13.8 mph 20.7 mph N/A   Overcast
11:53 AM 69.1 °F 54.0 °F 58% 30.18 in 10.0 mi North 11.5 mph 19.6 mph N/A   Overcast
12:53 PM 66.9 °F 51.1 °F 57% 30.18 in 10.0 mi North 12.7 mph 23.0 mph N/A   Mostly Cloudy
1:53 PM 66.2 °F 51.8 °F 60% 30.17 in 10.0 mi NNE 13.8 mph 23.0 mph N/A   Overcast
2:53 PM 66.9 °F 52.0 °F 59% 30.16 in 10.0 mi NNE 15.0 mph 23.0 mph N/A   Overcast
3:53 PM 66.0 °F 51.1 °F 59% 30.16 in 10.0 mi NNE 11.5 mph 19.6 mph N/A   Overcast
4:53 PM 64.9 °F 51.1 °F 61% 30.17 in 10.0 mi North 8.1 mph 16.1 mph N/A   Overcast
5:53 PM 64.0 °F 50.0 °F 60% 30.17 in 10.0 mi NNE 10.4 mph - N/A   Overcast
6:53 PM 64.9 °F 51.1 °F 61% 30.19 in 10.0 mi Variable 5.8 mph - N/A   Overcast
7:53 PM 64.9 °F 53.1 °F 65% 30.21 in 10.0 mi NNE 8.1 mph - N/A   Overcast
8:53 PM 66.9 °F 53.1 °F 61% 30.22 in 10.0 mi NNE 5.8 mph - N/A   Overcast
9:53 PM 66.9 °F 53.1 °F 61% 30.23 in 10.0 mi NE 5.8 mph - N/A   Overcast
10:53 PM 66.9 °F 53.1 °F 61% 30.22 in 10.0 mi ENE 6.9 mph - N/A   Overcast
11:53 PM 68.0 °F 53.1 °F 59% 30.22 in 10.0 mi NE 5.8 mph - N/A   Overcast